When you browse on this site, cookies collect data to enhance your experience and personalize the content and advertising you see.
Visit our Privacy Policy to learn more. By continuing to use the site, you agree to this use of cookies and data.
  • In Lithuania
  • List of Countries
  • For 7 days
  • Water Temperature
  • Weather Map
  • Weather Widgets
  • user-avatar
    Login

    Hourly Weather Otrokovice

    Today, 22 September, Sunday

    Time Temperature Precipitation Wind Pressure Humidity
    00:00 +9°C° 0 mm 2 mps 749 mmHg 66%
    01:00 +10°C° 0 mm 1 mps 749 mmHg 67%
    02:00 +9°C° 0 mm 1 mps 748 mmHg 68%
    03:00 +8°C° 0 mm 2 mps 748 mmHg 69%
    04:00 +8°C° 0 mm 2 mps 748 mmHg 70%
    05:00 +9°C° 0 mm 2 mps 748 mmHg 68%
    06:00 +9°C° 0 mm 2 mps 748 mmHg 65%
    07:00 +10°C° 0 mm 2 mps 748 mmHg 63%
    08:00 +14°C° 0 mm 2 mps 747 mmHg 55%
    09:00 +16°C° 0 mm 3 mps 747 mmHg 47%
    10:00 +18°C° 0 mm 4 mps 747 mmHg 39%
    11:00 +19°C° 0 mm 4 mps 746 mmHg 37%
    12:00 +20°C° 0 mm 5 mps 746 mmHg 36%
    13:00 +21°C° 0 mm 5 mps 745 mmHg 34%
    14:00 +21°C° 0 mm 5 mps 745 mmHg 36%
    15:00 +21°C° 0 mm 4 mps 744 mmHg 37%
    16:00 +20°C° 0 mm 4 mps 744 mmHg 39%
    17:00 +19°C° 0 mm 4 mps 744 mmHg 44%
    18:00 +17°C° 0 mm 3 mps 744 mmHg 48%
    19:00 +14°C° 0 mm 3 mps 744 mmHg 53%
    20:00 +13°C° 0 mm 3 mps 744 mmHg 54%
    21:00 +13°C° 0 mm 3 mps 744 mmHg 55%
    22:00 +13°C° 0 mm 2 mps 743 mmHg 57%
    23:00 +13°C° 0 mm 2 mps 743 mmHg 56%

    Tomorrow, 23 September, Monday

    Time Temperature Precipitation Wind Pressure Humidity
    00:00 +13°C° 0 mm 2 mps 743 mmHg 56%
    01:00 +13°C° 0 mm 2 mps 743 mmHg 56%
    02:00 +13°C° 0 mm 2 mps 743 mmHg 55%
    03:00 +13°C° 0 mm 1 mps 743 mmHg 55%
    04:00 +13°C° 0 mm 1 mps 743 mmHg 54%
    05:00 +14°C° 0 mm 1 mps 743 mmHg 53%
    06:00 +14°C° 0 mm 1 mps 743 mmHg 53%
    07:00 +15°C° 0 mm 1 mps 743 mmHg 52%
    08:00 +18°C° 0 mm 1 mps 743 mmHg 50%
    09:00 +18°C° 0 mm 2 mps 743 mmHg 48%
    10:00 +20°C° 0 mm 2 mps 743 mmHg 46%
    11:00 +20°C° 0 mm 2 mps 743 mmHg 47%
    12:00 +21°C° 0 mm 2 mps 743 mmHg 48%
    13:00 +21°C° 0 mm 2 mps 743 mmHg 48%
    14:00 +21°C° 0 mm 2 mps 743 mmHg 50%
    15:00 +21°C° 0 mm 2 mps 742 mmHg 51%
    16:00 +21°C° 0 mm 2 mps 742 mmHg 52%
    17:00 +19°C° 0 mm 2 mps 743 mmHg 58%
    18:00 +18°C° 0 mm 2 mps 743 mmHg 63%
    19:00 +16°C° 0 mm 1 mps 743 mmHg 68%
    20:00 +16°C° 0 mm 1 mps 743 mmHg 68%
    21:00 +16°C° 0 mm 1 mps 744 mmHg 69%
    22:00 +16°C° 0 mm 1 mps 744 mmHg 69%
    23:00 +16°C° 0 mm 1 mps 744 mmHg 72%

    Day after tomorrow, 24 September, Tuesday

    Time Temperature Precipitation Wind Pressure Humidity
    00:00 +15°C° 0 mm 1 mps 744 mmHg 75%
    01:00 +15°C° 0 mm 1 mps 744 mmHg 79%
    02:00 +14°C° 0 mm 1 mps 743 mmHg 82%
    03:00 +13°C° 0 mm 1 mps 743 mmHg 86%
    04:00 +12°C° 0 mm 0 mps 743 mmHg 89%
    05:00 +12°C° 0 mm 0 mps 743 mmHg 88%
    06:00 +13°C° 0 mm 0 mps 743 mmHg 86%
    07:00 +13°C° 0 mm 0 mps 743 mmHg 85%
    08:00 +15°C° 0 mm 0 mps 743 mmHg 77%
    09:00 +17°C° 0 mm 0 mps 743 mmHg 69%
    10:00 +19°C° 0 mm 0 mps 742 mmHg 61%
    11:00 +22°C° 0 mm 1 mps 742 mmHg 58%
    12:00 +22°C° 0 mm 1 mps 742 mmHg 55%
    13:00 +23°C° 0 mm 1 mps 741 mmHg 53%
    14:00 +23°C° 0.1 mm 1 mps 741 mmHg 54%
    15:00 +22°C° 0.1 mm 1 mps 741 mmHg 55%
    16:00 +22°C° 0.1 mm 1 mps 740 mmHg 57%
    17:00 +20°C° 0 mm 1 mps 740 mmHg 63%
    18:00 +19°C° 0 mm 1 mps 740 mmHg 70%
    19:00 +16°C° 0 mm 1 mps 740 mmHg 76%
    20:00 +16°C° 0 mm 1 mps 740 mmHg 79%
    21:00 +15°C° 0 mm 1 mps 740 mmHg 82%
    22:00 +15°C° 0 mm 1 mps 740 mmHg 84%
    23:00 +14°C° 0 mm 1 mps 740 mmHg 86%

    25 September, Wednesday

    Time Temperature Precipitation Wind Pressure Humidity
    00:00 +14°C° 0 mm 1 mps 740 mmHg 88%
    01:00 +13°C° 0 mm 1 mps 740 mmHg 91%
    02:00 +13°C° 0 mm 1 mps 740 mmHg 91%
    03:00 +13°C° 0 mm 1 mps 740 mmHg 92%
    04:00 +13°C° 0 mm 1 mps 739 mmHg 93%
    05:00 +13°C° 0 mm 1 mps 739 mmHg 91%
    06:00 +14°C° 0 mm 1 mps 739 mmHg 89%
    07:00 +14°C° 0 mm 1 mps 739 mmHg 88%
    08:00 +15°C° 0 mm 2 mps 739 mmHg 81%
    09:00 +17°C° 0 mm 2 mps 739 mmHg 75%
    10:00 +18°C° 0 mm 3 mps 740 mmHg 69%
    11:00 +19°C° 0.1 mm 4 mps 740 mmHg 65%
    12:00 +20°C° 0.1 mm 4 mps 740 mmHg 61%
    13:00 +20°C° 0.1 mm 5 mps 740 mmHg 57%
    14:00 +20°C° 0 mm 5 mps 740 mmHg 57%
    15:00 +19°C° 0 mm 5 mps 740 mmHg 58%
    16:00 +19°C° 0 mm 5 mps 740 mmHg 58%
    17:00 +18°C° 0 mm 4 mps 740 mmHg 62%
    18:00 +17°C° 0 mm 4 mps 740 mmHg 65%
    19:00 +16°C° 0 mm 3 mps 741 mmHg 69%
    20:00 +14°C° 0 mm 3 mps 741 mmHg 74%
    21:00 +12°C° 0 mm 3 mps 741 mmHg 80%
    22:00 +12°C° 0 mm 2 mps 741 mmHg 85%
    23:00 +12°C° 0 mm 2 mps 741 mmHg 87%

    26 September, Thursday

    Time Temperature Precipitation Wind Pressure Humidity
    00:00 +10°C° 0 mm 2 mps 741 mmHg 88%
    01:00 +11°C° 0 mm 1 mps 742 mmHg 90%
    02:00 +11°C° 0 mm 1 mps 742 mmHg 91%
    03:00 +10°C° 0 mm 1 mps 742 mmHg 92%
    04:00 +10°C° 0 mm 1 mps 742 mmHg 93%
    05:00 +10°C° 0 mm 1 mps 742 mmHg 91%
    06:00 +11°C° 0 mm 1 mps 743 mmHg 88%
    07:00 +11°C° 0 mm 1 mps 743 mmHg 86%
    08:00 +12°C° 0 mm 2 mps 743 mmHg 81%
    09:00 +13°C° 0 mm 2 mps 743 mmHg 77%
    10:00 +15°C° 0 mm 2 mps 744 mmHg 72%
    11:00 +16°C° 0 mm 3 mps 743 mmHg 70%
    12:00 +16°C° 0 mm 3 mps 743 mmHg 68%
    13:00 +17°C° 0 mm 3 mps 743 mmHg 65%
    14:00 +18°C° 0 mm 2 mps 743 mmHg 64%
    15:00 +18°C° 0 mm 2 mps 743 mmHg 63%
    16:00 +20°C° 0 mm 1 mps 743 mmHg 62%
    17:00 +18°C° 0 mm 1 mps 743 mmHg 69%
    18:00 +15°C° 0 mm 1 mps 743 mmHg 76%
    19:00 +14°C° 0 mm 1 mps 744 mmHg 82%
    20:00 +13°C° 0 mm 1 mps 744 mmHg 83%
    21:00 +13°C° 0 mm 1 mps 744 mmHg 84%
    22:00 +13°C° 0 mm 1 mps 744 mmHg 85%
    23:00 +13°C° 0 mm 1 mps 744 mmHg 84%

    27 September, Friday

    Time Temperature Precipitation Wind Pressure Humidity
    00:00 +13°C° 0 mm 1 mps 744 mmHg 83%
    01:00 +13°C° 0 mm 1 mps 744 mmHg 81%
    02:00 +13°C° 0 mm 1 mps 744 mmHg 82%
    03:00 +13°C° 0 mm 1 mps 744 mmHg 83%
    04:00 +12°C° 0 mm 1 mps 744 mmHg 84%
    05:00 +13°C° 0 mm 1 mps 744 mmHg 81%
    06:00 +13°C° 0 mm 1 mps 744 mmHg 79%
    07:00 +14°C° 0 mm 1 mps 744 mmHg 77%
    08:00 +15°C° 0 mm 1 mps 744 mmHg 72%
    09:00 +18°C° 0 mm 1 mps 744 mmHg 68%
    10:00 +18°C° 0 mm 2 mps 744 mmHg 63%
    11:00 +19°C° 0 mm 2 mps 744 mmHg 60%
    12:00 +20°C° 0 mm 3 mps 743 mmHg 57%
    13:00 +21°C° 0 mm 3 mps 743 mmHg 55%
    14:00 +21°C° 0 mm 3 mps 743 mmHg 56%
    15:00 +21°C° 0 mm 3 mps 742 mmHg 57%
    16:00 +21°C° 0 mm 3 mps 742 mmHg 59%
    17:00 +20°C° 0 mm 3 mps 742 mmHg 63%
    18:00 +19°C° 0 mm 2 mps 742 mmHg 67%
    19:00 +17°C° 0 mm 2 mps 742 mmHg 70%
    20:00 +17°C° 0 mm 3 mps 742 mmHg 69%
    21:00 +17°C° 0 mm 3 mps 741 mmHg 67%
    22:00 +17°C° 0 mm 3 mps 741 mmHg 66%
    23:00 +17°C° 0 mm 3 mps 741 mmHg 67%
    Show more